Poughkeepsie, NY

7:22 AM EDT on May 25, 2018 (GMT -0400)
Dutchess County

Weather History for KPOU - March, 2014

Change the Weather History Date:

Thursday, March 6, 2014

  Actual Average Record
Temperature  
Mean Temperature 19 °F 33 °F  
Max Temperature 30 °F 44 °F 63 °F (1935)
Min Temperature 8 °F 22 °F -2 °F (2015)
Degree Days  
Heating Degree Days 46 32  
Month to date heating degree days 272 195  
Since 1 July heating degree days 4975 4766  
Cooling Degree Days 0 0  
Month to date cooling degree days 0 0  
Year to date cooling degree days 0 0  
Moisture  
Dew Point 0 °F    
Average Humidity 48    
Maximum Humidity 70    
Minimum Humidity 28    
Precipitation  
Precipitation 0.00 in 0.11 in 2.11 in (2011)
Month to date precipitation 0.00 0.65  
Year to date precipitation 4.28 6.39  
Sea Level Pressure  
Sea Level Pressure 30.57 in    
Wind  
Wind Speed 6 mph (North)    
Max Wind Speed 14 mph    
Max Gust Speed -    
Visibility 10 miles    
Events      
T = Trace of Precipitation, MM = Missing Value Source: NWS Daily Summary

Daily Weather History Graph

Daily Weather History Graph

Search for Another Location

Airport or City:

Astronomy

Mar. 06, 2014 Rise Set
Actual Time 6:22 AM EST 5:51 PM EST
Civil Twilight 5:54 AM EST 6:19 PM EST
Nautical Twilight 5:22 AM EST 6:51 PM EST
Astronomical Twilight 4:50 AM EST 7:24 PM EST
Moon 9:23 AM EST (3/6) No Moon Set
Length of Visible Light 12h 25m
Length of Day
11h 29m
Waxing Crescent, 32% of the Moon is Illuminated
Mar 6
Waxing Crescent
Mar 8
First Quarter
Mar 16
Full
Mar 23
Last Quarter
Mar 30
New

Hourly Weather History & Observations

Time (EST) Temp. Windchill Dew Point Humidity Pressure Visibility Wind Dir Wind Speed Gust Speed Precip Events Conditions
12:53 AM 15.1 °F 2.5 °F 1.0 °F 54% 30.53 in 10.0 mi North 10.4 mph - N/A   Clear
1:53 AM 12.9 °F 1.6 °F -0.9 °F 54% 30.55 in 10.0 mi North 8.1 mph - N/A   Clear
2:53 AM 12.0 °F 4.1 °F -0.9 °F 56% 30.55 in 10.0 mi NE 4.6 mph - N/A   Clear
3:53 AM 10.9 °F -0.8 °F -0.9 °F 59% 30.57 in 10.0 mi NNE 8.1 mph - N/A   Clear
4:53 AM 10.0 °F -1.9 °F -2.0 °F 58% 30.59 in 10.0 mi North 8.1 mph - N/A   Clear
5:53 AM 9.0 °F -3.2 °F -2.9 °F 59% 30.61 in 10.0 mi North 8.1 mph - N/A   Clear
6:53 AM 9.0 °F 2.4 °F -4.0 °F 56% 30.62 in 10.0 mi NNE 3.5 mph - N/A   Clear
7:53 AM 10.9 °F -1.8 °F -4.0 °F 51% 30.65 in 10.0 mi North 9.2 mph - N/A   Clear
8:53 AM 14.0 °F -0.8 °F -2.9 °F 47% 30.66 in 10.0 mi NNE 13.8 mph - N/A   Clear
9:53 AM 17.1 °F 4.3 °F -2.9 °F 41% 30.65 in 10.0 mi NNE 11.5 mph - N/A   Clear
10:53 AM 19.0 °F 9.0 °F -2.9 °F 38% 30.64 in 10.0 mi NNE 8.1 mph - N/A   Clear
11:53 AM 21.0 °F 16.2 °F -2.9 °F 35% 30.63 in 10.0 mi Variable 3.5 mph - N/A   Clear
12:53 PM 23.0 °F - -2.9 °F 32% 30.58 in 10.0 mi Calm Calm - N/A   Clear
1:53 PM 25.0 °F - -4.0 °F 28% 30.57 in 10.0 mi Calm Calm - N/A   Clear
2:53 PM 28.0 °F 22.8 °F -0.0 °F 30% 30.55 in 10.0 mi WNW 4.6 mph - N/A   Clear
3:53 PM 28.9 °F - -0.9 °F 28% 30.53 in 10.0 mi Calm Calm - N/A   Clear
4:53 PM 28.9 °F 25.2 °F -0.0 °F 29% 30.53 in 10.0 mi West 3.5 mph - N/A   Clear
5:53 PM 26.1 °F 21.9 °F 1.9 °F 35% 30.53 in 10.0 mi WSW 3.5 mph - N/A   Clear
6:53 PM 24.1 °F - 1.0 °F 37% 30.53 in 10.0 mi Calm Calm - N/A   Clear
7:53 PM 19.0 °F - 3.9 °F 52% 30.53 in 10.0 mi Calm Calm - N/A   Clear
8:53 PM 16.0 °F - 5.0 °F 62% 30.54 in 10.0 mi Calm Calm - N/A   Clear
9:53 PM 14.0 °F - 3.9 °F 64% 30.52 in 10.0 mi Calm Calm - N/A   Clear
10:53 PM 12.9 °F - 3.9 °F 67% 30.51 in 10.0 mi Calm Calm - N/A   Clear
11:53 PM 12.0 °F - 3.9 °F 70% 30.49 in 10.0 mi Calm Calm - N/A   Clear